Weather History for KAKR - March, 2013

Change the Weather History Date:

Wednesday, March 6, 2013

  Actual Average (KCAK) Record (KCAK)
Temperature  
Mean Temperature 36 °F 34 °F  
Max Temperature 43 °F 42 °F 72 °F (1973)
Min Temperature 30 °F 25 °F -2 °F (1901)
Degree Days  
Heating Degree Days 28 31  
Month to date heating degree days 191  
Since 1 July heating degree days 4735  
Cooling Degree Days 0 0  
Month to date cooling degree days 0  
Year to date cooling degree days 0  
Moisture  
Dew Point 28 °F    
Average Humidity 74    
Maximum Humidity 89    
Minimum Humidity 51    
Precipitation  
Precipitation 0.03 in 0.08 in - ()
Month to date precipitation 0.51  
Year to date precipitation 5.43  
Snow  
Snow 0.00 in 0.30 in - ()
Month to date snowfall 2.0  
Since 1 July snowfall 38.5  
Snow Depth -    
Sea Level Pressure  
Sea Level Pressure 29.90 in    
Wind  
Wind Speed 10 mph (NE)    
Max Wind Speed 16 mph    
Max Gust Speed 23 mph    
Visibility 8 miles    
Events Snow    
T = Trace of Precipitation, MM = Missing Value Source: NWS Daily Summary

Daily Weather History Graph

Daily Weather History Graph

Search for Another Location

Airport or City:

Trip Planner

Search our weather history database for the weather conditions in past years. The results will help you decide how hot, cold, wet, or windy it might be!

Date:

Astronomy

Mar. 06, 2013 Rise Set
Actual Time 6:51 AM EST 6:22 PM EST
Civil Twilight 6:24 AM EST 6:50 PM EST
Nautical Twilight 5:52 AM EST 7:22 PM EST
Astronomical Twilight 5:20 AM EST 7:54 PM EST
Moon 3:01 AM EST (3/6) 1:01 PM EST (3/6)
Length of Visible Light 12h 25m
Length of Day
11h 31m
Waning Crescent, 30% of the Moon is Illuminated
Mar 6
Waning Crescent
Mar 11
New
Mar 19
First Quarter
Mar 27
Full
Apr 3
Last Quarter

Hourly Weather History & Observations

Time (EST) Temp. Windchill Dew Point Humidity Pressure Visibility Wind Dir Wind Speed Gust Speed Precip Events Conditions
12:54 AM 36.0 °F 27.5 °F 23.0 °F 59% 29.65 in 10.0 mi ENE 12.7 mph 18.4 mph N/A   Overcast
1:54 AM 34.0 °F 27.2 °F 26.1 °F 73% 29.68 in 2.5 mi East 8.1 mph 16.1 mph 0.00 in Snow Light Snow
2:01 AM 33.8 °F 27.7 °F 28.4 °F 81% 29.66 in 1.8 mi East 6.9 mph - 0.00 in Snow Light Snow
2:54 AM 32.0 °F 24.8 °F 28.9 °F 88% 29.69 in 1.2 mi ENE 8.1 mph 18.4 mph 0.00 in Snow Light Snow
3:45 AM 32.0 °F 23.0 °F 28.4 °F 87% 29.68 in 2.0 mi ENE 11.5 mph 19.6 mph 0.01 in Snow Light Snow
3:54 AM 32.0 °F 21.2 °F 28.9 °F 88% 29.71 in 2.5 mi ENE 16.1 mph 23.0 mph 0.01 in Snow Light Snow
3:59 AM 32.0 °F 22.5 °F 28.4 °F 87% 29.69 in 3.0 mi ENE 12.7 mph 21.9 mph 0.00 in Snow Light Snow
4:08 AM 32.0 °F 22.5 °F 28.4 °F 87% 29.69 in 4.0 mi ENE 12.7 mph - 0.00 in Snow Light Snow
4:32 AM 33.8 °F 24.8 °F 28.4 °F 81% 29.71 in 4.0 mi ENE 12.7 mph - 0.00 in Snow Light Snow
4:54 AM 33.1 °F 23.9 °F 28.9 °F 85% 29.75 in 5.0 mi ENE 12.7 mph 19.6 mph 0.00 in   Overcast
5:07 AM 33.8 °F 25.3 °F 28.4 °F 81% 29.73 in 6.0 mi ENE 11.5 mph 18.4 mph N/A   Overcast
5:51 AM 33.8 °F 25.3 °F 28.4 °F 81% 29.76 in 6.0 mi East 11.5 mph 18.4 mph 0.02 in   Overcast
5:54 AM 33.1 °F 25.5 °F 28.9 °F 85% 29.79 in 6.0 mi East 9.2 mph - 0.02 in   Overcast
6:05 AM 33.8 °F 27.0 °F 28.4 °F 81% 29.77 in 7.0 mi ENE 8.1 mph - N/A   Overcast
6:54 AM 33.1 °F 26.9 °F 28.9 °F 85% 29.83 in 8.0 mi ENE 6.9 mph - N/A   Overcast
7:54 AM 34.0 °F 26.0 °F 28.9 °F 82% 29.88 in 6.0 mi ENE 10.4 mph - N/A   Haze
8:22 AM 33.8 °F 26.4 °F 28.4 °F 81% 29.88 in 7.0 mi ENE 9.2 mph - N/A   Overcast
8:34 AM 33.8 °F 25.8 °F 28.4 °F 81% 29.89 in 8.0 mi East 10.4 mph - N/A   Overcast
8:54 AM 35.1 °F 27.9 °F 28.9 °F 78% 29.92 in 9.0 mi ENE 9.2 mph - N/A   Overcast
9:54 AM 37.0 °F 31.6 °F 28.9 °F 73% 29.95 in 10.0 mi Variable 6.9 mph - N/A   Scattered Clouds
10:46 AM 39.2 °F 33.6 °F 28.4 °F 65% 29.95 in 10.0 mi ENE 8.1 mph - N/A   Mostly Cloudy
10:54 AM 39.9 °F 33.4 °F 28.9 °F 65% 29.97 in 10.0 mi NE 10.4 mph - N/A   Mostly Cloudy
11:15 AM 41.0 °F 35.2 °F 28.4 °F 61% 29.96 in 10.0 mi ENE 9.2 mph - N/A   Mostly Cloudy
11:54 AM 39.9 °F 34.5 °F 27.0 °F 60% 30.00 in 10.0 mi SE 8.1 mph - N/A   Mostly Cloudy
12:54 PM 42.1 °F 37.1 °F 27.0 °F 55% 30.01 in 10.0 mi North 8.1 mph - N/A   Overcast
1:54 PM 42.1 °F 38.4 °F 26.1 °F 53% 30.01 in 10.0 mi NE 5.8 mph - N/A   Overcast
2:54 PM 43.0 °F 38.8 °F 26.1 °F 51% 30.02 in 10.0 mi North 6.9 mph - N/A   Mostly Cloudy
3:54 PM 42.1 °F 37.1 °F 26.1 °F 53% 30.05 in 10.0 mi NW 8.1 mph - N/A   Overcast
4:54 PM 41.0 °F 34.7 °F 26.1 °F 55% 30.06 in 10.0 mi North 10.4 mph - N/A   Overcast
5:54 PM 39.9 °F 35.8 °F 27.0 °F 60% 30.07 in 10.0 mi North 5.8 mph - N/A   Overcast
6:54 PM 39.0 °F 34.0 °F 27.0 °F 62% 30.11 in 10.0 mi NNE 6.9 mph - N/A   Overcast
7:54 PM 36.0 °F 29.6 °F 26.1 °F 67% 30.13 in 10.0 mi North 8.1 mph - N/A   Mostly Cloudy
8:54 PM 33.1 °F 27.7 °F 25.0 °F 72% 30.15 in 10.0 mi North 5.8 mph - N/A   Clear
9:54 PM 30.9 °F 27.5 °F 26.1 °F 82% 30.16 in 10.0 mi NNE 3.5 mph - N/A   Clear
10:54 PM 30.0 °F 24.1 °F 26.1 °F 85% 30.17 in 10.0 mi NW 5.8 mph - N/A   Partly Cloudy
11:23 PM 32.0 °F - 28.4 °F 87% 30.14 in 10.0 mi Calm Calm - N/A   Overcast
11:54 PM 30.9 °F 26.2 °F 28.0 °F 89% 30.16 in 9.0 mi WNW 4.6 mph - N/A   Overcast